Tracking 25612 objects as of 20-May-2022
HD Live streaming from Space Station
objects crossing your sky now

BREEZE-M DEB

Track BREEZE-M DEB now!


NORAD ID: 41318
Int'l Code: 2012-026E
Perigee: 10,488.7 km
Apogee: 34,610.4 km
Inclination: 11.1 °
Period: 815.8 minutes
Semi major axis: 28920 km
RCS: Unknown
Launch date: May 17, 2012
Source: Commonwealth of Independent States (former USSR) (CIS)
Launch site: TYURATAM MISSILE AND SPACE COMPLEX (TTMTR)

Note: This is SATELLITE DEBRIS
aabbcc
Your satellite tracking list
Your tracking list is empty




NASA's NSSDC Master Catalog

Two Line Element Set (TLE):
1 41318U 12026E   22130.06406711 -.00000096  00000-0  00000+0 0  9996
2 41318  11.0750 266.9902 4170353 168.2157 205.8579  1.76519692 40725
Source of the keplerian elements: AFSPC